Language selection

Features

My Weather Profile Weather Topics  | 

Chaleur - Miscou - western half: Past 24 Hour Conditions

 

Cartwright Airport

07:00 PM AST 21 January 2020
Disclaimer

This table is a summary of hourly weather conditions for the past 24 hours.
Please note that these observations might not always be representative of weather conditions over their associated marine area.

Date / Time
(AST)
Wind(knots) Conditions Visibility(km) Pressure(kPa) Air tempC) Relative humidity(%) Dew pointC) Wind Chill
21 January 2020
19:00 SSW 9 Clear 16 101.7 -19 58 -26 -29
18:00 SW 10 gust 21 Clear 16 101.5 -18 56 -25 -27
17:00 WSW 8 Clear 16 101.5 -18 53 -25 -26
16:00 SW 11 gust 17 Sunny 16 101.3 -18 50 -26 -28
15:00 WSW 14 gust 19 Sunny 16 101.2 -17 48 -26 -28
14:00 W 14 gust 20 Sunny 16 101.2 -17 45 -26 -28
13:00 WSW 11 Sunny 16 101.2 -18 53 -25 -28
12:00 SW 10 gust 16 Sunny 16 101.1 -19 58 -26 -29
11:00 WSW 8 Sunny 16 101.2 -20 60 -26 -30
10:00 SW 10 gust 18 Sunny 16 101.2 -21 62 -26 -31
9:00 SSW 6 Sunny 16 101.1 -22 64 -27 -30
8:00 SW 9 Sunny 16 101.0 -22 68 -26 -32
7:00 SW 7 Clear 16 101.0 -22 67 -27 -31
6:00 SW 7 Cloudy 16 100.9 -23 68 -27 -31
5:00 SSW 6 Cloudy 16 100.9 -23 70 -27 -31
4:00 SSW 7 Cloudy 16 100.8 -22 68 -27 -31
3:00 SW 8 Clear 16 100.8 -22 71 -26 -31
2:00 SW 7 Clear 16 100.8 -22 72 -25 -30
1:00 SSW 6 Clear 16 100.8 -22 70 -27 -31
0:00 SSW 5 Clear 16 100.8 -21 72 -25 -28
20 January 2020
23:00 SW 6 Clear 16 100.8 -21 71 -25 -29
22:00 WSW 7 Mostly Cloudy 16 100.7 -20 68 -24 -28
21:00 WNW 8 Mostly Cloudy 16 100.7 -18 55 -25 -27
20:00 WNW 5 Mostly Cloudy 16 100.7 -18 56 -25 -25
19:00 NW 7 Clear 16 100.7 -18 59 -24 -26

Zoom-in to make a selection

Map of Atlantic - Newfoundland marine weather areas Banquereau - 44139 Blanc-Sablon Airport Cap Whittle Chevery Natashquan Airport Heath Point Îles de la Madeleine Airport Miscou Island Eskasoni (First Nations) Grand Étang Ingonish Beach North Mountain St.Paul Island J.A. Douglas McCurdy Sydney Airport Charlottetown Airport East Point North Cape Argentia Bonavista Burgeo Cape Race Corner Brook Daniel's Harbour Englee Ferolle Point La Scie Port aux Basques Rocky Harbour Sagona Island St. Anthony Airport St. John's Int'l Airport St. Lawrence Stephenville Airport Twillingate Winterland Branch Hill Wreckhouse Grates Cove Pool's Island Marticot Island Long Pond Cartwright Airport Mary's Harbour
Legend:
buoy Buoy
land station Land Station

Atlantic - Newfoundland Area

Another Region

What we are doing

Date modified: